Location: Doughton Park
(36.4224°N, 81.1835°W)
Time: 09:23:50
(UTC-05:00)

ISS - All Passes

Search period start: 07 December 2016 00:00
Search period end: 17 December 2016 00:00
Orbit: 401 x 410 km, 51.6° (Epoch: 07 December)

Date Brightness Start Highest point End Pass type
(mag) Time Alt. Az. Time Alt. Az. Time Alt. Az.
07 Dec - 15:51:03 10° SW 15:54:19 74° NW 15:57:36 10° NE daylight
07 Dec - 17:29:48 10° NW 17:31:18 12° NNW 17:32:48 10° N daylight
07 Dec - 22:21:06 10° NW 22:24:15 41° NE 22:27:25 10° ESE night (unlit)
07 Dec - 23:58:21 10° W 00:00:30 16° SW 00:02:40 10° S night (unlit)
08 Dec - 14:59:11 10° SSW 15:02:21 50° SE 15:05:34 10° ENE daylight
08 Dec - 16:36:40 10° WNW 16:39:03 18° NNW 16:41:27 10° NNE daylight
08 Dec - 21:29:23 10° NNW 21:32:09 24° NNE 21:34:54 10° E night (unlit)
08 Dec - 23:05:40 10° WNW 23:08:41 33° SW 23:11:40 10° SSE night (unlit)
09 Dec - 14:07:47 10° S 14:10:28 24° SE 14:13:11 10° ENE daylight
09 Dec - 15:43:57 10° W 15:46:52 29° NW 15:49:49 10° NNE daylight
09 Dec - 20:37:51 10° NNW 20:39:56 15° NNE 20:42:00 10° ENE night (unlit)
09 Dec - 22:13:27 10° NW 22:16:45 73° SW 22:20:02 10° SE night (unlit)
10 Dec - 13:17:24 10° SSE 13:18:40 12° SE 13:19:56 10° ESE daylight
10 Dec - 14:51:33 10° WSW 14:54:47 55° NW 14:58:01 10° NE daylight
10 Dec - 16:30:57 10° NW 16:31:52 11° NNW 16:32:48 10° N daylight
10 Dec - 19:46:46 10° N 19:47:38 11° NNE 19:48:29 10° NE visible
10 Dec - 21:21:29 10° NW 21:24:44 53° NE 21:27:58 10° ESE night (unlit)
10 Dec - 22:59:23 10° W 23:00:52 12° SW 23:02:21 10° SSW night (unlit)
11 Dec - 13:59:31 10° SW 14:02:45 69° SE 14:06:01 10° NE daylight
11 Dec - 15:37:28 10° WNW 15:39:33 16° NNW 15:41:39 10° NNE daylight
11 Dec - 20:29:40 10° NNW 20:32:37 29° NNE 20:35:32 10° E night (unlit)
11 Dec - 22:06:15 10° WNW 22:09:02 25° SW 22:11:48 10° S night (unlit)
12 Dec - 13:07:52 10° SSW 13:10:48 31° SE 13:13:45 10° ENE daylight
12 Dec - 14:44:34 10° W 14:47:18 24° NNW 14:50:04 10° NNE daylight
12 Dec - 19:38:02 10° NNW 19:40:23 18° NNE 19:42:45 10° ENE visible
12 Dec - 21:13:52 10° WNW 21:17:06 53° SW 21:20:19 10° SSE night (unlit)
13 Dec - 12:16:55 10° SSE 12:18:55 15° SE 12:20:57 10° E daylight
13 Dec - 13:52:01 10° WSW 13:55:09 42° NW 13:58:18 10° NE daylight
13 Dec - 18:46:38 10° N 18:48:04 12° NNE 18:49:31 10° NE visible
13 Dec - 20:21:47 10° NW 20:25:04 71° NE 20:28:22 10° SE night (unlit)
14 Dec - 12:59:47 10° SW 13:03:03 88° NNW 13:06:20 10° NE daylight
14 Dec - 14:38:14 10° NW 14:39:57 13° NNW 14:41:42 10° N daylight
14 Dec - 19:29:52 10° NNW 19:32:57 35° NE 19:36:01 10° ESE visible
14 Dec - 21:06:49 10° W 21:09:16 19° SW 21:11:42 10° S night (unlit)
15 Dec - 12:07:56 10° SSW 12:11:02 41° SE 12:14:09 10° ENE daylight
15 Dec - 13:45:07 10° W 13:47:38 20° NNW 13:50:11 10° NNE daylight
15 Dec - 18:38:07 10° NNW 18:40:43 21° NNE 18:43:20 10° E visible
15 Dec - 20:14:12 10° WNW 20:17:19 39° SW 20:20:25 10° SSE visible
16 Dec - 11:16:37 10° S 11:19:06 20° SE 11:21:34 10° E daylight
16 Dec - 12:52:24 10° WSW 12:55:24 33° NW 12:58:26 10° NNE daylight
16 Dec - 17:46:34 10° N 17:48:24 14° NNE 17:50:14 10° ENE visible
16 Dec - 19:21:59 10° NW 19:25:17 87° SW 19:28:34 10° SE visible
